Location: �perlecques
(50.8057°N, 2.1521°E)
Time: 19:24:17
(UTC+00:00)

Tiros 1 - Pass Details

Date: 10 August 2021
Orbit: 630 x 663 km, 48.4° (Epoch: 28 September)

Event Time Altitude Azimuth Distance (km) Brightness Sun altitude
Rises 16:48:53 0° 260° (W) 2,992 12.0 22.5°
Reaches altitude 10° 16:51:15 10° 258° (WSW) 2,078 11.7 22.1°
Maximum altitude 16:56:01 66° 176° (S) 719 7.7 21.4°
Drops below altitude 10° 17:00:45 10° 95° (E) 2,065 9.2 20.6°
Sets 17:03:05 0° 93° (E) 2,971 9.9 20.3°
